Regional Weather Roundup
Issued by NWS Wakefield, VA

Home | Current Version | Previous Version | Text Only | Print | Product List | Glossary On
Versions: 1 2 3 4 5 6 7 8 9 10 11 12 13 14 15 16 17 18 19 20 21 22 23 24 25 26 27 28 29 30 31 32 33 34 35 36 37 38 39 40 41 42 43 44 45 46 47 48 49 50
000
ASUS41 KAKQ 060410
RWRAKQ

REGIONAL WEATHER ROUNDUP
NATIONAL WEATHER SERVICE WAKEFIELD VA
1100 PM EST THU MAR 05 2015

Note: "fair" indicates few or no clouds below 12,000 feet with no
significant weather and/or obstructions to visibility. * = Denotes
station may not report precipitation (e.g., rain,snow,etc.),
thunder or fog.

VAZ042-051-052>054-056-060500-
NORTHERN VIRGINIA

CITY           SKY/WX    TMP DP  RH WIND       PRES   REMARKS
WASH NATIONAL  CLOUDY    26  13  57 N13       30.46R WCI  15
DULLES         MOCLDY    21   8  57 N14       30.45R WCI   8
FORT BELVOIR   DRIZZLE   23  12  62 NW12G17   30.45R WCI  12
QUANTICO       CLOUDY    24  15  68 N13G23    30.47R WCI  12
FREDERICKSBRG* CLOUDY    25  16  68 NW12      30.45R WCI  14
STAFFORD*      CLOUDY    22  15  74 CALM      30.49R
WARRENTON      CLOUDY    22  14  70 N12G20    30.44R WCI  11
CULPEPER*      PTCLDY    21  10  63 N13       30.43F WCI   9
MANASSAS*      MOCLDY    21  12  68 N9        30.46R
LEESBURG*      PTCLDY    21  12  68 N9G17     30.46R
WINCHESTER     CLEAR     19   3  49 N10       30.45R WCI   8
FRONT ROYAL*   FAIR      19   7  58 N6        30.44R
LURAY*         FAIR      21  12  68 N9        30.43R
$$

VAZ048-049-060>072-079>083-060500-
CENTRAL AND SOUTH CENTRAL VIRGINIA

CITY           SKY/WX    TMP DP  RH WIND       PRES   REMARKS
RICHMOND       CLOUDY    26  20  77 N14       30.41R WCI  14
CHESTERFIELD*  CLOUDY    27  12  54 N10       30.41R WCI  17
PETERSBURG*    CLOUDY    28  25  87 N14       30.39R WCI  17
HANOVER        CLOUDY    25  19  78 VRB6G16   30.42S
TAPPAHANNOCK*  CLOUDY    26  19  74 NW7       30.42R
QUINTON*       CLOUDY    25  19  79 N9        30.41R
CHARLOTTSVILLE PTCLDY    23  14  68 NW8       30.40R
GORDONSVILLE*  FAIR      20  16  83 CALM      30.41R
ORANGE*        PTCLDY    23  18  80 N6        30.43S
LOUISA*        CLOUDY    23  18  80 N8        30.40R
BUMPASS*       CLOUDY    24  17  76 N7        30.41R
FARMVILLE*     CLOUDY    29  29  99 N6          N/A
CREWE*         CLOUDY    27  24  89 N5        30.38R
FORT PICKETT*  CLOUDY    26  24  91 N7        30.37R
CHASE CITY*    CLOUDY    30  28  90 N7        30.37R
CLARKSVILLE*   CLOUDY    30  27  86 N5        30.36R
SOUTH HILL*    CLOUDY    27  24  89 N10       30.41R WCI  18
LAWRENCEVILLE* CLOUDY    27  24  88 N6        30.36S
EMPORIA*       CLOUDY    28  25  86 NW12G17   30.37S WCI  18
$$

VAZ088>098-060500-
SOUTHEAST VIRGINIA

CITY           SKY/WX    TMP DP  RH WIND       PRES   REMARKS
NORFOLK        CLOUDY    29  22  75 N21G29    30.34S WCI  16
VIRGINIA BEACH CLOUDY    30  25  81 N20G32    30.33S WCI  17
NORFOLK NAVAL  CLOUDY    31  23  72 N23G30    30.34F WCI  18
WEST POINT*    CLOUDY    29  24  79 N12       30.42R WCI  19
SALUDA*        CLOUDY    26  21  83 N16G22    30.39S WCI  13
NEWPORT NEWS   CLOUDY    31  24  75 N15G22    30.34F WCI  20
LANGLEY AFB    CLOUDY    28  23  80 N18G25    30.34F WCI  16
FORT EUSTIS    DRIZZLE   29  29  99 N9        30.34F
WILLIAMSBURG*    N/A    N/A N/A N/A MISG      30.36F
HR EXEC AP*    CLOUDY   N/A N/A N/A MISG        N/A
FRANKLIN*      CLOUDY    29  25  85 N13G22    30.36R WCI  18
WAKEFIELD      CLOUDY    28  22  78 N10       30.37R WCI  19
$$

VAZ020-022-025-037-045-060500-
WEST CENTRAL AND SOUTHWEST VIRGINIA

CITY           SKY/WX    TMP DP  RH WIND       PRES   REMARKS
STAUNTON*      CLOUDY    21  15  78 N6        30.40R
WAYNESBORO*    CLOUDY    19  15  88 N6        30.36R
HOT SPRINGS VA MOCLDY    10   8  95 NW6       30.16S
LYNCHBURG      PTCLDY    26  25  96 N6        30.37R
DANVILLE       CLOUDY    31  25  78 NE9       30.37R
SOUTH BOSTON*  CLOUDY    29  24  79 N9        30.38R
MARTINSVILLE   CLOUDY    30  21  70 NW12      30.40R WCI  20
ROANOKE        PTCLDY    23  13  65 N12       30.40R WCI  12
BLACKSBURG     FLURRIES  18  12  76 W10       30.36R WCI   7
DUBLIN*        FLURRIES  20  16  83 N5        30.34S
MARION*        LGT SNOW  20  14  79 CALM      30.33S
HILLSVILLE*    CLOUDY    19  16  86 N12       30.26R WCI   7
RICHLANDS*     LGT SNOW  15  10  82 NW8       30.33S
WISE*          LGT SNOW  16  16 100 N5        30.35S
ABINGDON*      CLOUDY    21  16  83 N3        30.36S
$$

MDZ021>025-VAZ099-100-060500-
SOUTHERN MARYLAND AND THE DELMARVA PENINSULA

CITY           SKY/WX    TMP DP  RH WIND       PRES   REMARKS
PATUXENT RIVER CLOUDY    24  18  77 N17       30.41S WCI  11
BAY BRIDGE APT   N/A     25  19  80 NW7       30.44R
LEONARDTOWN    CLOUDY    25  19  80 CALM      30.42S
DOVER          CLOUDY    22  15  73 NW15      30.40R WCI   9
GEORGETOWN     CLOUDY    22  14  71 N7        30.38R
EASTON         CLOUDY    25  19  77 N8        30.45R
CAMBRIDGE      CLOUDY    27  18  69 N13       30.40S WCI  16
SALISBURY      CLOUDY    25  16  68 N9        30.38R
OCEAN CITY     CLOUDY    22  17  81 N13       30.37R WCI  10
WALLOPS ISLAND FLURRIES  23  19  85 N10       30.36R WCI  12
ACCOMACK*      LGT SNOW  25  21  86 N15G25    30.35F WCI  12
$$

NCZ012>017-030>032-060500-
NORTH CENTRAL AND EASTERN NORTH CAROLINA

CITY           SKY/WX    TMP DP  RH WIND       PRES   REMARKS
ROANOKE RAPIDS CLOUDY    30  27  86 N16G25    30.35R WCI  19
RALEIGH        CLOUDY    32  26  78 N7        30.34R
ELIZABETH CITY LGT SNOW  31  28  89 N22G31    30.30F FOG     WCI  18
AHOSKIE*       CLOUDY    29  26  88 N13G20    30.36R WCI  19
EDENTON*       CLOUDY    32  31  94 N15G22    30.31R FOG     WCI  22
CURRITUCK*     MIX PCPN  31  28  90 N16G28    30.31F WCI  19
KILL DEVIL HLS MIX PCPN  31  31 100 N15G29    30.25F WCI  21
MANTEO         MIX PCPN  31  30  95 N26G32    30.28S WCI  18
CAPE HATTERAS  LGT RAIN  35  34  96 N22G37    30.21R WCI  23
TARBORO*       CLOUDY    32  29  88 N8        30.35R
GOLDSBORO      CLOUDY    32  32 100 N14G20    30.30R WCI  22
WASHINGTON     CLOUDY    32  31  94 N12G18    30.32R WCI  23
GREENVILLE     CLOUDY    32  32 100 N9        30.34R
NEW BERN       LGT RAIN  35  31  85 N16G26    30.31R
WILMINGTON     LGT RAIN  38  36  92 N18G25    30.26R
$$

VAZ048-060500-
ELSEWHERE

CITY           SKY/WX    TMP DP  RH WIND       PRES   REMARKS
HARRISBURG PA  PTCLDY    19   3  49 NW12      30.42R WCI   7
BALTIMORE      CLOUDY    21  12  68 NW7       30.43R
ANNAPOLIS      CLOUDY    24  16  71 N12       30.43R WCI  13
ANDREWS AFB    FLURRIES  22  13  68 NW13      30.41R WCI  10
PHILADELPHIA   CLOUDY    22  10  60 N13       30.42R WCI  10
HENDERSON NC   CLOUDY    30  25  81 CALM      30.35R
GREENSBORO     CLOUDY    31  26  82 N7G21     30.33R
ROCKY MOUNT    CLOUDY    32  27  81 N15G23    30.34R WCI  22
$$

VAZ100-060500-
MARINE

STATION/POSITION TIME  TEMP    WIND        PRES    WAVE   SWELL
                       AIR SEA DIR/SP/G            HT/PER HT/PER
                 (UTC) (F)     (DEG/KT/KT) (MB)    (FT/S) (FT/S)
BRANDYWINE LGT   0400   24 31  360/ 27/ 31 1028.7R
CAPE MAY NJ      0400   22 33  340/ 12/ 19 1028.2R
LEWES DE         0400   25 31  350/ 23/ 26 1028.8R
15NM E FENWICK I 0400   25 35              1027.1R   6/ 7
OCEAN-CITY-INLET 0400   23 32  360/ 16/ 19 1027.7F
WACHAPREAGUE VA  0400   24 38  350/  7/ 19 1027.3F
THOMAS POINT MD  0400          130/ 12/ 15   N/A
COVE POINT MD    0400   23     350/ 20/ 22 1029.4F
SOLOMONS ISLAND  0400      33                N/A
BISHOPS HEAD MD  0400   24 30  350/ 13/ 21 1028.6F
CAMBRIDGE MD     0400   24 32  340/ 14/ 17 1029.7F
LEWISETTA VA     0400   24 33  360/ 10/ 14 1029.5S
RAPPAHANNOCK LGT 0400          350/ 28/ 32 1028.4F
STINGRAY PT      0400   27     360/ 21/ 27   N/A
YORK RVR RNG VA  0400   28      10/ 24/ 27 1027.0S
YORKTOWN VA      0400   28 35  360/ 18/ 19 1028.1R
DOMINION TERM VA 0400   29     360/ 13/ 17 1028.1R
KIPTOPEKE VA     0400      39  360/ 19/ 28   N/A
CHES BAY BRIDGE  0400   28 34  350/ 27/ 33 1027.6R
CAPE HENRY VA    0400   28     350/ 30/ 34 1025.7F
CHESAPEAKE LGHT  0300   28     360/ 27/ 29 1026.5R
WILLOUBY STN VA  0400   29     360/ 18/ 22 1028.2R
S CRANEY ISL VA  0400          360/ 22/ 26 1027.3F
CAPE HENRY BUOY  0400      35                N/A     7/ 7   2/11
1ST LANDING BUOY 0400   29     350/ 25/ 33 1026.7F
OFFSHORE WE BUOY 0400      36                N/A     9/ 8   3/15
64NM E OF VA BCH 0400   36 52  350/ 31/ 37 1023.6R  10/ 8   3/14
DUCK PIER NC     0400   30 36   10/ 30/ 33 1023.4F
44100 DUCK FRF   0400      38                N/A    10/ 7   2/11
44056 DUCK FRF   0400      35                N/A     9/ 8   2/11
OREGON INLET NC  0400   32 44  350/ 20/ 28 1023.9F
HATTERAS NC      0400      50   10/ 30/ 39 1022.8F
CAPE LOOKOUT NC  0300           10/ 16/ 22 1022.0R
$$


USA.gov is the U.S. government's official web portal to all federal, state and local government web resources and services.